Time,TemperatureF,DewpointF,PressureIn,WindDirection,WindDirectionDegrees,WindSpeedMPH,WindSpeedGustMPH,Humidity,HourlyPrecipIn,Conditions,Clouds,dailyrainin,SoftwareType,DateUTC
2013-04-19 00:01:00,52.3,39.7,30.15,SSW,201,0.0,6.0,62,0.00,,---,0.00,VWS V14.01,2013-04-19 03:01:00,
2013-04-19 00:07:00,52.1,39.5,30.15,SSW,201,1.0,6.0,62,0.00,,---,0.00,VWS V14.01,2013-04-19 03:07:00,
2013-04-19 00:13:00,52.0,40.2,30.15,SSW,202,2.0,6.0,64,0.00,,---,0.00,VWS V14.01,2013-04-19 03:13:00,
2013-04-19 00:19:00,52.2,40.8,30.14,SSW,202,1.0,6.0,65,0.00,,---,0.00,VWS V14.01,2013-04-19 03:19:00,
2013-04-19 00:25:00,52.4,41.4,30.14,SSW,202,1.0,6.0,66,0.00,,---,0.00,VWS V14.01,2013-04-19 03:25:00,
2013-04-19 00:30:00,52.4,41.4,30.14,SSW,202,2.0,6.0,66,0.00,,---,0.00,VWS V14.01,2013-04-19 03:30:00,
2013-04-19 00:36:00,52.5,41.5,30.14,SSW,202,0.0,6.0,66,0.00,,---,0.00,VWS V14.01,2013-04-19 03:36:00,
2013-04-19 00:42:00,52.4,41.8,30.14,SSW,202,0.0,6.0,67,0.00,,---,0.00,VWS V14.01,2013-04-19 03:42:00,
2013-04-19 00:48:00,52.4,41.8,30.13,SSW,202,0.0,6.0,67,0.00,,---,0.00,VWS V14.01,2013-04-19 03:48:00,
2013-04-19 00:53:00,52.2,41.6,30.13,SSW,202,0.0,6.0,67,0.00,,---,0.00,VWS V14.01,2013-04-19 03:53:00,
2013-04-19 00:59:00,52.2,41.6,30.13,SSW,202,0.0,6.0,67,0.00,,---,0.00,VWS V14.01,2013-04-19 03:59:00,
2013-04-19 01:02:00,52.2,41.6,30.13,SSW,202,0.0,6.0,67,0.00,,---,0.00,VWS V14.01,2013-04-19 04:02:00,
2013-04-19 01:03:00,52.2,42.0,30.13,SSW,202,0.0,6.0,68,0.00,,---,0.00,VWS V14.01,2013-04-19 04:03:00,
2013-04-19 01:04:00,52.2,42.0,30.13,SSE,168,0.0,6.0,68,0.00,,---,0.00,VWS V14.01,2013-04-19 04:04:00,
2013-04-19 01:06:00,52.2,42.0,30.13,South,169,0.0,6.0,68,0.00,,---,0.00,VWS V14.01,2013-04-19 04:06:00,
2013-04-19 01:09:00,52.2,42.0,30.13,South,169,0.0,6.0,68,0.00,,---,0.00,VWS V14.01,2013-04-19 04:09:00,
2013-04-19 01:15:00,52.3,42.1,30.14,South,169,0.0,6.0,68,0.00,,---,0.00,VWS V14.01,2013-04-19 04:15:00,
2013-04-19 01:21:00,52.3,42.1,30.13,South,169,0.0,6.0,68,0.00,,---,0.00,VWS V14.01,2013-04-19 04:21:00,
2013-04-19 01:26:00,52.2,42.3,30.13,South,169,0.0,6.0,69,0.00,,---,0.00,VWS V14.01,2013-04-19 04:26:00,
2013-04-19 01:32:00,52.2,42.3,30.13,South,169,0.0,6.0,69,0.00,,---,0.00,VWS V14.01,2013-04-19 04:32:00,
2013-04-19 01:38:00,52.2,42.3,30.12,South,169,0.0,6.0,69,0.00,,---,0.00,VWS V14.01,2013-04-19 04:38:00,
2013-04-19 01:44:00,52.1,42.6,30.12,South,169,0.0,6.0,70,0.00,,---,0.00,VWS V14.01,2013-04-19 04:44:00,
2013-04-19 01:50:00,52.2,42.7,30.11,South,169,0.0,6.0,70,0.00,,---,0.00,VWS V14.01,2013-04-19 04:50:00,
2013-04-19 01:56:00,52.1,42.6,30.11,South,169,1.0,6.0,70,0.00,,---,0.00,VWS V14.01,2013-04-19 04:56:00,
2013-04-19 02:02:00,52.1,43.0,30.11,South,169,0.0,6.0,71,0.00,,---,0.00,VWS V14.01,2013-04-19 05:02:00,
2013-04-19 02:08:00,52.1,43.0,30.10,South,169,0.0,6.0,71,0.00,,---,0.00,VWS V14.01,2013-04-19 05:08:00,
2013-04-19 02:14:00,52.1,43.0,30.10,South,169,0.0,6.0,71,0.00,,---,0.00,VWS V14.01,2013-04-19 05:14:00,
2013-04-19 02:20:00,52.0,43.3,30.09,South,169,0.0,6.0,72,0.00,,---,0.00,VWS V14.01,2013-04-19 05:20:00,
2013-04-19 02:26:00,51.9,43.2,30.08,South,169,0.0,6.0,72,0.00,,---,0.00,VWS V14.01,2013-04-19 05:26:00,
2013-04-19 02:31:00,51.9,43.2,30.08,South,169,1.0,6.0,72,0.00,,---,0.00,VWS V14.01,2013-04-19 05:31:00,
2013-04-19 02:37:00,51.8,43.1,30.07,South,169,0.0,6.0,72,0.00,,---,0.00,VWS V14.01,2013-04-19 05:37:00,
2013-04-19 02:43:00,51.8,43.4,30.07,South,169,0.0,6.0,73,0.00,,---,0.00,VWS V14.01,2013-04-19 05:43:00,
2013-04-19 02:49:00,51.8,43.4,30.07,South,169,0.0,6.0,73,0.00,,---,0.00,VWS V14.01,2013-04-19 05:49:00,
2013-04-19 02:55:00,51.8,43.4,30.06,South,169,1.0,6.0,73,0.00,,---,0.00,VWS V14.01,2013-04-19 05:55:00,
2013-04-19 03:00:00,51.8,44.5,30.06,South,169,1.0,6.0,76,0.00,,---,0.00,VWS V14.01,2013-04-19 06:00:00,
2013-04-19 03:06:00,51.9,43.9,30.06,South,169,0.0,6.0,74,0.00,,---,0.00,VWS V14.01,2013-04-19 06:06:00,
2013-04-19 03:12:00,51.9,43.9,30.05,South,169,0.0,6.0,74,0.00,,---,0.00,VWS V14.01,2013-04-19 06:12:00,
2013-04-19 03:18:00,51.9,44.2,30.05,South,171,0.0,6.0,75,0.00,,---,0.00,VWS V14.01,2013-04-19 06:18:00,
2013-04-19 03:23:00,52.0,44.3,30.05,SSE,160,4.0,6.0,75,0.00,,---,0.00,VWS V14.01,2013-04-19 06:23:00,
2013-04-19 03:29:00,52.0,44.7,30.04,SSE,160,0.0,6.0,76,0.00,,---,0.00,VWS V14.01,2013-04-19 06:29:00,
2013-04-19 03:35:00,52.1,45.1,30.04,SSE,168,4.0,6.0,77,0.00,,---,0.00,VWS V14.01,2013-04-19 06:35:00,
2013-04-19 03:41:00,52.2,45.9,30.03,SSE,168,0.0,6.0,79,0.00,,---,0.00,VWS V14.01,2013-04-19 06:41:00,
2013-04-19 03:47:00,52.3,46.0,30.03,SSE,163,1.0,6.0,79,0.00,,---,0.00,VWS V14.01,2013-04-19 06:47:00,
2013-04-19 03:53:00,52.3,46.0,30.03,SSE,163,0.0,6.0,79,0.00,,---,0.00,VWS V14.01,2013-04-19 06:53:00,
2013-04-19 03:59:00,52.3,46.3,30.03,SSE,163,0.0,6.0,80,0.00,,---,0.00,VWS V14.01,2013-04-19 06:59:00,
2013-04-19 04:05:00,52.4,46.4,30.03,South,175,2.0,6.0,80,0.00,,---,0.00,VWS V14.01,2013-04-19 07:05:00,
2013-04-19 04:11:00,52.4,46.8,30.03,South,189,2.0,6.0,81,0.00,,---,0.00,VWS V14.01,2013-04-19 07:11:00,
2013-04-19 04:17:00,52.5,47.2,30.03,South,175,0.0,6.0,82,0.00,,---,0.00,VWS V14.01,2013-04-19 07:17:00,
2013-04-19 04:23:00,52.6,47.6,30.03,South,175,0.0,6.0,83,0.00,,---,0.00,VWS V14.01,2013-04-19 07:23:00,
2013-04-19 04:28:00,52.7,47.7,30.03,South,175,0.0,6.0,83,0.00,,---,0.00,VWS V14.01,2013-04-19 07:28:00,
2013-04-19 04:34:00,52.7,47.7,30.03,South,175,0.0,6.0,83,0.00,,---,0.00,VWS V14.01,2013-04-19 07:34:00,
2013-04-19 04:40:00,52.7,47.7,30.03,South,175,0.0,6.0,83,0.00,,---,0.00,VWS V14.01,2013-04-19 07:40:00,
2013-04-19 04:46:00,52.8,48.1,30.03,South,175,0.0,6.0,84,0.00,,---,0.00,VWS V14.01,2013-04-19 07:46:00,
2013-04-19 04:52:00,52.8,48.4,30.03,South,175,1.0,6.0,85,0.00,,---,0.00,VWS V14.01,2013-04-19 07:52:00,
2013-04-19 04:58:00,52.9,48.5,30.02,South,175,0.0,6.0,85,0.00,,---,0.00,VWS V14.01,2013-04-19 07:58:00,
2013-04-19 05:04:00,52.9,48.8,30.02,South,175,0.0,6.0,86,0.00,,---,0.00,VWS V14.01,2013-04-19 08:04:00,
2013-04-19 05:10:00,53.0,48.9,30.01,South,175,0.0,6.0,86,0.00,,---,0.00,VWS V14.01,2013-04-19 08:10:00,
2013-04-19 05:16:00,53.0,49.2,30.01,South,175,0.0,6.0,87,0.00,,---,0.00,VWS V14.01,2013-04-19 08:16:00,
2013-04-19 05:22:00,53.1,49.3,30.02,South,175,0.0,6.0,87,0.00,,---,0.00,VWS V14.01,2013-04-19 08:22:00,
2013-04-19 05:27:00,53.2,49.4,30.01,South,175,0.0,6.0,87,0.00,,---,0.00,VWS V14.01,2013-04-19 08:27:00,
2013-04-19 05:33:00,53.2,49.4,30.01,South,175,1.0,6.0,87,0.00,,---,0.00,VWS V14.01,2013-04-19 08:33:00,
2013-04-19 05:39:00,53.2,49.7,30.01,South,175,0.0,6.0,88,0.00,,---,0.00,VWS V14.01,2013-04-19 08:39:00,
2013-04-19 05:45:00,53.2,49.7,30.01,South,175,1.0,6.0,88,0.00,,---,0.00,VWS V14.01,2013-04-19 08:45:00,
2013-04-19 05:51:00,53.3,49.8,30.00,South,175,0.0,6.0,88,0.00,,---,0.00,VWS V14.01,2013-04-19 08:51:00,
2013-04-19 05:57:00,53.3,50.2,30.00,South,186,0.0,6.0,89,0.00,,---,0.00,VWS V14.01,2013-04-19 08:57:00,
2013-04-19 06:03:00,53.4,50.2,30.00,South,186,0.0,6.0,89,0.00,,---,0.00,VWS V14.01,2013-04-19 09:03:00,
2013-04-19 06:09:00,53.4,50.5,30.00,South,186,2.0,6.0,90,0.00,,---,0.00,VWS V14.01,2013-04-19 09:09:00,
2013-04-19 06:15:00,53.5,50.6,29.99,South,186,0.0,6.0,90,0.00,,---,0.00,VWS V14.01,2013-04-19 09:15:00,
2013-04-19 06:21:00,53.5,50.6,29.99,South,186,1.0,6.0,90,0.00,,---,0.00,VWS V14.01,2013-04-19 09:21:00,
2013-04-19 06:27:00,53.5,50.6,29.98,South,186,0.0,6.0,90,0.00,,---,0.00,VWS V14.01,2013-04-19 09:27:00,
2013-04-19 06:32:00,53.6,51.0,29.98,South,186,1.0,6.0,91,0.00,,---,0.00,VWS V14.01,2013-04-19 09:32:00,
2013-04-19 06:38:00,53.6,51.0,29.97,South,186,0.0,6.0,91,0.00,,---,0.00,VWS V14.01,2013-04-19 09:38:00,
2013-04-19 06:44:00,53.6,51.0,29.97,South,182,0.0,6.0,91,0.00,,---,0.00,VWS V14.01,2013-04-19 09:44:00,
2013-04-19 06:50:00,53.6,51.3,29.97,South,182,1.0,6.0,92,0.00,,---,0.00,VWS V14.01,2013-04-19 09:50:00,
2013-04-19 06:56:00,53.7,51.4,29.97,South,182,1.0,6.0,92,0.00,,---,0.00,VWS V14.01,2013-04-19 09:56:00,
2013-04-19 07:02:00,53.8,51.8,29.97,South,173,5.0,6.0,93,0.00,,---,0.00,VWS V14.01,2013-04-19 10:02:00,
2013-04-19 07:08:00,53.9,51.9,29.97,SSE,162,0.0,6.0,93,0.00,,---,0.00,VWS V14.01,2013-04-19 10:08:00,
2013-04-19 07:14:00,53.9,51.9,29.96,SSE,162,0.0,6.0,93,0.00,,---,0.00,VWS V14.01,2013-04-19 10:14:00,
2013-04-19 07:20:00,53.9,51.9,29.96,SSE,162,0.0,6.0,93,0.00,,---,0.00,VWS V14.01,2013-04-19 10:20:00,
2013-04-19 07:26:00,54.1,52.1,29.96,SSE,162,1.0,6.0,93,0.00,,---,0.00,VWS V14.01,2013-04-19 10:26:00,
2013-04-19 07:32:00,54.3,52.6,29.97,SSW,192,3.0,6.0,94,0.00,,---,0.00,VWS V14.01,2013-04-19 10:32:00,
2013-04-19 07:37:00,54.5,52.8,29.98,SSW,197,3.0,6.0,94,0.00,,---,0.00,VWS V14.01,2013-04-19 10:37:00,
2013-04-19 07:43:00,54.7,53.0,29.98,SSW,200,0.0,6.0,94,0.00,,---,0.00,VWS V14.01,2013-04-19 10:43:00,
2013-04-19 07:49:00,54.8,53.1,29.98,SSW,200,0.0,6.0,94,0.00,,---,0.00,VWS V14.01,2013-04-19 10:49:00,
2013-04-19 07:55:00,54.9,53.2,29.98,SSW,200,0.0,6.0,94,0.00,,---,0.00,VWS V14.01,2013-04-19 10:55:00,
2013-04-19 08:00:00,55.0,53.3,29.99,SSW,200,0.0,6.0,94,0.00,,---,0.00,VWS V14.01,2013-04-19 11:00:00,
2013-04-19 08:06:00,55.1,53.4,29.98,SSW,200,0.0,6.0,94,0.00,,---,0.00,VWS V14.01,2013-04-19 11:06:00,
2013-04-19 08:12:00,55.3,53.6,29.98,SSW,200,2.0,6.0,94,0.00,,---,0.00,VWS V14.01,2013-04-19 11:12:00,
2013-04-19 08:18:00,55.5,53.8,29.97,SSW,200,2.0,6.0,94,0.00,,---,0.00,VWS V14.01,2013-04-19 11:18:00,
2013-04-19 08:24:00,55.8,54.1,29.97,South,188,1.0,6.0,94,0.00,,---,0.00,VWS V14.01,2013-04-19 11:24:00,
2013-04-19 08:29:00,56.0,54.3,29.97,South,179,1.0,6.0,94,0.00,,---,0.00,VWS V14.01,2013-04-19 11:29:00,
2013-04-19 08:35:00,56.3,54.6,29.97,SSW,199,3.0,6.0,94,0.00,,---,0.00,VWS V14.01,2013-04-19 11:35:00,
2013-04-19 08:41:00,56.6,54.6,29.98,SSW,196,3.0,6.0,93,0.00,,---,0.00,VWS V14.01,2013-04-19 11:41:00,
2013-04-19 08:47:00,56.8,54.8,29.98,South,184,3.0,6.0,93,0.00,,---,0.00,VWS V14.01,2013-04-19 11:47:00,
2013-04-19 08:53:00,57.1,55.1,29.98,South,188,4.0,6.0,93,0.00,,---,0.00,VWS V14.01,2013-04-19 11:53:00,
2013-04-19 08:59:00,57.4,55.1,29.97,SSW,192,2.0,6.0,92,0.00,,---,0.00,VWS V14.01,2013-04-19 11:59:00,
2013-04-19 09:05:00,57.7,55.4,29.97,South,188,2.0,6.0,92,0.00,,---,0.00,VWS V14.01,2013-04-19 12:05:00,
2013-04-19 09:11:00,58.2,55.6,29.96,South,175,2.0,6.0,91,0.00,,---,0.00,VWS V14.01,2013-04-19 12:11:00,
2013-04-19 09:17:00,58.5,55.9,29.96,SSW,207,3.0,6.0,91,0.00,,---,0.00,VWS V14.01,2013-04-19 12:17:00,
2013-04-19 09:23:00,58.9,56.0,29.96,SSW,211,5.0,6.0,90,0.00,,---,0.00,VWS V14.01,2013-04-19 12:23:00,
2013-04-19 09:29:00,59.3,56.1,29.95,SSW,211,5.0,6.0,89,0.00,,---,0.00,VWS V14.01,2013-04-19 12:29:00,
2013-04-19 09:34:00,59.8,56.2,29.95,South,177,4.0,6.0,88,0.00,,---,0.00,VWS V14.01,2013-04-19 12:34:00,
2013-04-19 09:40:00,60.2,56.6,29.94,South,184,2.0,6.0,88,0.00,,---,0.00,VWS V14.01,2013-04-19 12:40:00,
2013-04-19 09:46:00,60.5,56.6,29.95,South,181,3.0,6.0,87,0.00,,---,0.00,VWS V14.01,2013-04-19 12:46:00,
2013-04-19 09:52:00,61.0,56.8,29.95,SSW,209,4.0,6.0,86,0.00,,---,0.00,VWS V14.01,2013-04-19 12:52:00,
2013-04-19 09:58:00,61.6,57.0,29.95,SSW,194,4.0,6.0,85,0.00,,---,0.00,VWS V14.01,2013-04-19 12:58:00,
2013-04-19 10:04:00,62.1,57.2,29.95,SSW,199,5.0,6.0,84,0.00,,---,0.00,VWS V14.01,2013-04-19 13:04:00,
2013-04-19 10:10:00,62.3,57.1,29.94,SW,215,5.0,6.0,83,0.00,,---,0.00,VWS V14.01,2013-04-19 13:10:00,
2013-04-19 10:16:00,62.8,57.6,29.94,SSE,157,6.0,6.0,83,0.00,,---,0.00,VWS V14.01,2013-04-19 13:16:00,
2013-04-19 10:22:00,63.4,57.5,29.95,SSW,195,3.0,6.0,81,0.00,,---,0.00,VWS V14.01,2013-04-19 13:22:00,
2013-04-19 10:28:00,63.5,57.6,29.94,SSW,210,5.0,6.0,81,0.00,,---,0.00,VWS V14.01,2013-04-19 13:28:00,
2013-04-19 10:34:00,63.6,57.7,29.94,SSW,197,8.0,8.0,81,0.00,,---,0.00,VWS V14.01,2013-04-19 13:34:00,
2013-04-19 10:39:00,63.7,57.4,29.94,South,179,7.0,7.0,80,0.00,,---,0.00,VWS V14.01,2013-04-19 13:39:00,
2013-04-19 10:45:00,63.8,57.5,29.93,SSW,213,5.0,6.0,80,0.00,,---,0.00,VWS V14.01,2013-04-19 13:45:00,
2013-04-19 10:51:00,64.2,57.9,29.93,SSW,200,2.0,6.0,80,0.00,,---,0.00,VWS V14.01,2013-04-19 13:51:00,
2013-04-19 10:57:00,64.7,58.0,29.92,South,171,4.0,6.0,79,0.00,,---,0.00,VWS V14.01,2013-04-19 13:57:00,
2013-04-19 11:03:00,65.5,58.5,29.92,SSW,207,9.0,9.0,78,0.00,,---,0.00,VWS V14.01,2013-04-19 14:03:00,
2013-04-19 11:09:00,66.0,58.2,29.91,SSW,209,3.0,6.0,76,0.00,,---,0.00,VWS V14.01,2013-04-19 14:09:00,
2013-04-19 11:15:00,66.8,58.6,29.91,SSW,213,8.0,8.0,75,0.00,,---,0.00,VWS V14.01,2013-04-19 14:15:00,
2013-04-19 11:21:00,67.7,59.1,29.91,SSW,208,4.0,6.0,74,0.00,,---,0.00,VWS V14.01,2013-04-19 14:21:00,
2013-04-19 11:27:00,68.1,58.7,29.91,SSW,208,4.0,6.0,72,0.00,,---,0.00,VWS V14.01,2013-04-19 14:27:00,
2013-04-19 11:33:00,68.1,58.7,29.91,SW,214,4.0,6.0,72,0.00,,---,0.00,VWS V14.01,2013-04-19 14:33:00,
2013-04-19 11:39:00,68.0,58.7,29.91,SSW,210,4.0,6.0,72,0.00,,---,0.00,VWS V14.01,2013-04-19 14:39:00,
2013-04-19 11:45:00,68.7,58.9,29.91,SW,216,4.0,6.0,71,0.00,,---,0.00,VWS V14.01,2013-04-19 14:45:00,
2013-04-19 11:50:00,69.4,58.8,29.90,SW,218,6.0,6.0,69,0.00,,---,0.00,VWS V14.01,2013-04-19 14:50:00,
2013-04-19 11:56:00,69.2,59.0,29.90,SSW,196,5.0,6.0,70,0.00,,---,0.00,VWS V14.01,2013-04-19 14:56:00,
2013-04-19 12:02:00,69.1,58.5,29.89,SSW,196,5.0,6.0,69,0.00,,---,0.00,VWS V14.01,2013-04-19 15:02:00,
2013-04-19 12:08:00,69.3,58.7,29.89,SSW,211,6.0,6.0,69,0.00,,---,0.00,VWS V14.01,2013-04-19 15:08:00,
2013-04-19 12:14:00,69.7,59.1,29.89,South,186,4.0,6.0,69,0.00,,---,0.00,VWS V14.01,2013-04-19 15:14:00,
2013-04-19 12:20:00,70.7,59.2,29.88,SW,216,5.0,6.0,67,0.00,,---,0.00,VWS V14.01,2013-04-19 15:20:00,
2013-04-19 12:26:00,71.8,59.4,29.88,SSW,196,4.0,6.0,65,0.00,,---,0.00,VWS V14.01,2013-04-19 15:26:00,
2013-04-19 12:32:00,71.0,58.7,29.88,SSW,198,7.0,7.0,65,0.00,,---,0.00,VWS V14.01,2013-04-19 15:32:00,
2013-04-19 12:38:00,70.6,58.7,29.88,SSW,195,4.0,6.0,66,0.00,,---,0.00,VWS V14.01,2013-04-19 15:38:00,
2013-04-19 12:44:00,70.6,58.7,29.88,SW,232,4.0,6.0,66,0.00,,---,0.00,VWS V14.01,2013-04-19 15:44:00,
2013-04-19 12:50:00,70.4,58.9,29.87,WSW,242,5.0,6.0,67,0.00,,---,0.00,VWS V14.01,2013-04-19 15:50:00,
2013-04-19 12:55:00,70.6,59.1,29.87,SSW,198,2.0,6.0,67,0.00,,---,0.00,VWS V14.01,2013-04-19 15:55:00,
2013-04-19 13:01:00,71.3,59.4,29.86,SW,225,7.0,7.0,66,0.00,,---,0.00,VWS V14.01,2013-04-19 16:01:00,
2013-04-19 13:07:00,71.7,58.9,29.86,South,182,7.0,7.0,64,0.00,,---,0.00,VWS V14.01,2013-04-19 16:07:00,
2013-04-19 13:13:00,72.1,59.3,29.86,SSW,203,3.0,6.0,64,0.00,,---,0.00,VWS V14.01,2013-04-19 16:13:00,
2013-04-19 13:19:00,72.1,58.8,29.85,SSW,196,4.0,6.0,63,0.00,,---,0.00,VWS V14.01,2013-04-19 16:19:00,
2013-04-19 13:25:00,71.9,58.6,29.86,SSE,161,8.0,8.0,63,0.00,,---,0.00,VWS V14.01,2013-04-19 16:25:00,
2013-04-19 13:30:00,72.2,58.9,29.85,SW,214,5.0,6.0,63,0.00,,---,0.00,VWS V14.01,2013-04-19 16:30:00,
2013-04-19 13:36:00,73.2,59.0,29.85,SSW,211,6.0,6.0,61,0.00,,---,0.00,VWS V14.01,2013-04-19 16:36:00,
2013-04-19 13:42:00,73.8,59.1,29.84,South,169,7.0,7.0,60,0.00,,---,0.00,VWS V14.01,2013-04-19 16:42:00,
2013-04-19 13:47:00,73.6,58.9,29.84,SSW,195,9.0,9.0,60,0.00,,---,0.00,VWS V14.01,2013-04-19 16:47:00,
2013-04-19 13:53:00,73.3,59.0,29.84,SSW,212,4.0,6.0,61,0.00,,---,0.00,VWS V14.01,2013-04-19 16:53:00,
2013-04-19 13:59:00,73.5,58.8,29.84,SW,230,9.0,9.0,60,0.00,,---,0.00,VWS V14.01,2013-04-19 16:59:00,
2013-04-19 14:05:00,73.6,59.3,29.84,SSW,202,8.0,8.0,61,0.00,,---,0.00,VWS V14.01,2013-04-19 17:05:00,
2013-04-19 14:11:00,73.6,58.9,29.83,SSE,155,8.0,8.0,60,0.00,,---,0.00,VWS V14.01,2013-04-19 17:11:00,
2013-04-19 14:17:00,74.4,59.6,29.82,SSE,157,11.0,11.0,60,0.00,,---,0.00,VWS V14.01,2013-04-19 17:17:00,
2013-04-19 14:23:00,73.6,59.3,29.82,SSW,201,5.0,6.0,61,0.00,,---,0.00,VWS V14.01,2013-04-19 17:23:00,
2013-04-19 14:29:00,73.5,59.2,29.82,South,187,7.0,7.0,61,0.00,,---,0.00,VWS V14.01,2013-04-19 17:29:00,
2013-04-19 14:35:00,73.5,59.2,29.82,SSW,201,6.0,6.0,61,0.00,,---,0.00,VWS V14.01,2013-04-19 17:35:00,
2013-04-19 14:41:00,73.6,58.9,29.82,SE,130,1.0,6.0,60,0.00,,---,0.00,VWS V14.01,2013-04-19 17:41:00,
2013-04-19 14:47:00,73.3,59.0,29.81,South,186,9.0,9.0,61,0.00,,---,0.00,VWS V14.01,2013-04-19 17:47:00,
2013-04-19 14:52:00,73.7,59.0,29.81,SSW,205,15.0,15.0,60,0.00,,---,0.00,VWS V14.01,2013-04-19 17:52:00,
2013-04-19 14:58:00,74.2,59.0,29.80,SW,215,9.0,9.0,59,0.00,,---,0.00,VWS V14.01,2013-04-19 17:58:00,
2013-04-19 15:04:00,74.2,59.4,29.80,SSW,207,8.0,8.0,60,0.00,,---,0.00,VWS V14.01,2013-04-19 18:04:00,
2013-04-19 15:10:00,74.0,58.8,29.79,SW,220,11.0,11.0,59,0.00,,---,0.00,VWS V14.01,2013-04-19 18:10:00,
2013-04-19 15:16:00,74.6,59.3,29.79,SSW,205,6.0,6.0,59,0.00,,---,0.00,VWS V14.01,2013-04-19 18:16:00,
2013-04-19 15:22:00,74.3,58.6,29.79,South,171,6.0,6.0,58,0.00,,---,0.00,VWS V14.01,2013-04-19 18:22:00,
2013-04-19 15:28:00,74.0,58.8,29.78,South,190,4.0,6.0,59,0.00,,---,0.00,VWS V14.01,2013-04-19 18:28:00,
2013-04-19 15:34:00,74.5,59.2,29.78,South,190,9.0,9.0,59,0.00,,---,0.00,VWS V14.01,2013-04-19 18:34:00,
2013-04-19 15:40:00,75.1,59.3,29.77,SW,220,11.0,11.0,58,0.00,,---,0.00,VWS V14.01,2013-04-19 18:40:00,
2013-04-19 15:46:00,75.9,59.6,29.77,SSE,163,12.0,12.0,57,0.00,,---,0.00,VWS V14.01,2013-04-19 18:46:00,
2013-04-19 15:52:00,75.5,58.7,29.77,SSE,166,6.0,6.0,56,0.00,,---,0.00,VWS V14.01,2013-04-19 18:52:00,
2013-04-19 15:57:00,74.8,59.0,29.76,SSW,202,8.0,8.0,58,0.00,,---,0.00,VWS V14.01,2013-04-19 18:57:00,
2013-04-19 16:03:00,74.4,58.7,29.76,South,189,6.0,6.0,58,0.00,,---,0.00,VWS V14.01,2013-04-19 19:03:00,
2013-04-19 16:09:00,74.4,59.2,29.76,South,169,6.0,6.0,59,0.00,,---,0.00,VWS V14.01,2013-04-19 19:09:00,
2013-04-19 16:15:00,74.2,59.0,29.75,South,174,7.0,7.0,59,0.00,,---,0.00,VWS V14.01,2013-04-19 19:15:00,
2013-04-19 16:21:00,74.3,59.5,29.75,SSW,210,5.0,6.0,60,0.00,,---,0.00,VWS V14.01,2013-04-19 19:21:00,
2013-04-19 16:27:00,74.2,59.4,29.75,South,183,2.0,6.0,60,0.00,,---,0.00,VWS V14.01,2013-04-19 19:27:00,
2013-04-19 16:33:00,74.1,59.3,29.75,SSW,194,6.0,6.0,60,0.00,,---,0.00,VWS V14.01,2013-04-19 19:33:00,
2013-04-19 16:39:00,74.0,59.2,29.74,SSW,193,7.0,7.0,60,0.00,,---,0.00,VWS V14.01,2013-04-19 19:39:00,
2013-04-19 16:45:00,74.0,59.7,29.75,South,182,5.0,6.0,61,0.00,,---,0.00,VWS V14.01,2013-04-19 19:45:00,
2013-04-19 17:00:00,73.6,59.3,29.74,SSW,202,6.0,13.0,61,0.00,,---,0.00,VWS V14.01,2013-04-19 20:00:00,
2013-04-19 17:30:00,72.4,60.4,29.74,SSW,202,4.0,12.0,66,0.00,,---,0.00,VWS V14.01,2013-04-19 20:30:00,
2013-04-19 18:00:00,70.7,61.2,29.73,SSW,202,5.0,13.0,72,0.00,,---,0.00,VWS V14.01,2013-04-19 21:00:00,
2013-04-19 18:30:00,69.5,62.0,29.72,South,180,4.0,11.0,77,0.00,,---,0.00,VWS V14.01,2013-04-19 21:30:00,
2013-04-19 19:00:00,69.2,62.1,29.70,SSW,202,5.0,14.0,78,0.00,,---,0.00,VWS V14.01,2013-04-19 22:00:00,
2013-04-19 19:30:00,68.9,62.5,29.68,SSW,202,5.0,17.0,80,0.00,,---,0.00,VWS V14.01,2013-04-19 22:30:00,
2013-04-19 20:00:00,68.6,62.5,29.67,SSW,202,5.0,11.0,81,0.00,,---,0.00,VWS V14.01,2013-04-19 23:00:00,
2013-04-19 20:30:00,68.8,62.7,29.67,SSW,202,6.0,14.0,81,0.00,,---,0.00,VWS V14.01,2013-04-19 23:30:00,
2013-04-19 21:00:00,68.2,62.2,29.66,SSW,202,6.0,15.0,81,0.00,,---,0.00,VWS V14.01,2013-04-20 00:00:00,
2013-04-19 21:30:00,67.7,61.7,29.67,SSW,202,6.0,16.0,81,0.00,,---,0.00,VWS V14.01,2013-04-20 00:30:00,
2013-04-19 22:00:00,67.5,61.8,29.66,SSW,202,6.0,14.0,82,0.00,,---,0.00,VWS V14.01,2013-04-20 01:00:00,
2013-04-19 22:30:00,67.4,61.7,29.64,SSW,202,6.0,15.0,82,0.00,,---,0.00,VWS V14.01,2013-04-20 01:30:00,
2013-04-19 23:00:00,67.1,61.8,29.64,SSW,202,5.0,13.0,83,0.00,,---,0.00,VWS V14.01,2013-04-20 02:00:00,
2013-04-19 23:30:00,67.0,61.7,29.63,SSW,202,6.0,17.0,83,0.00,,---,0.00,VWS V14.01,2013-04-20 02:30:00,